Location: Bremen
(53.0793°N, 8.8017°E)
Time: 09:19:38
(UTC+01:00)

Altair - Visible Passes

Search period start: 03 December 2021 00:00
Search period end: 13 December 2021 00:00
Orbit: 1502 x 1682 km, 47.2° (Epoch: 02 December)

Date Brightness Start Highest point End Pass type
(mag) Time Alt. Az. Time Alt. Az. Time Alt. Az.
03 Dec 8.1 16:47:52 10° SW 16:56:44 47° SSE 17:05:21 10° E visible
03 Dec 7.6 18:51:23 10° WSW 19:00:33 62° S 19:04:28 37° ESE visible
03 Dec 8.1 20:55:40 10° W 21:02:29 43° SW 21:02:29 43° SW visible
04 Dec 7.7 18:26:15 10° WSW 18:35:25 62° S 18:40:42 28° ESE visible
04 Dec 7.8 20:30:30 10° W 20:38:43 49° SSW 20:38:43 49° SSW visible
04 Dec 9.5 22:35:29 10° W 22:36:44 14° W 22:36:44 14° W visible
05 Dec 7.7 18:01:06 10° WSW 18:10:18 62° S 18:16:57 20° ESE visible
05 Dec 7.7 20:05:20 10° W 20:14:12 52° SSW 20:14:58 51° S visible
05 Dec 9.2 22:10:12 10° W 22:12:59 18° W 22:12:59 18° W visible
06 Dec 7.8 17:35:58 10° WSW 17:45:11 61° S 17:53:14 14° E visible
06 Dec 7.8 19:40:10 10° W 19:49:06 53° SSW 19:51:15 45° SSE visible
06 Dec 9.0 21:44:57 10° W 21:49:16 23° WSW 21:49:16 23° WSW visible
07 Dec 7.9 17:10:49 10° WSW 17:20:03 60° S 17:29:03 10° E visible
07 Dec 7.8 19:15:01 10° W 19:24:00 55° SSW 19:27:35 37° SE visible
07 Dec 8.7 21:19:43 10° W 21:25:37 28° WSW 21:25:37 28° WSW visible
08 Dec 7.9 16:45:40 10° WSW 16:54:56 60° S 17:03:56 10° E visible
08 Dec 7.8 18:49:50 10° W 18:58:54 56° SSW 19:03:58 28° SE visible
08 Dec 8.5 20:54:29 10° W 21:02:00 31° SW 21:02:00 31° SW visible
09 Dec 7.8 18:24:40 10° W 18:33:47 58° SSW 18:40:25 20° ESE visible
09 Dec 8.4 20:29:15 10° W 20:37:12 33° SW 20:38:27 32° SSW visible
10 Dec 7.9 17:59:30 10° W 18:08:40 59° SSW 18:16:57 13° ESE visible
10 Dec 8.4 20:04:03 10° W 20:12:09 35° SW 20:15:00 29° S visible
10 Dec 9.5 22:11:42 10° WSW 22:13:03 11° WSW 22:13:03 11° WSW visible
11 Dec 7.9 17:34:19 10° W 17:43:33 60° S 17:52:31 10° ESE visible
11 Dec 8.4 19:38:50 10° W 19:47:06 37° SSW 19:51:38 24° SSE visible
11 Dec 9.4 21:45:46 10° WSW 21:49:31 13° SW 21:49:42 13° SW visible
12 Dec 8.0 17:09:09 10° W 17:18:26 61° S 17:27:26 10° ESE visible
12 Dec 8.4 19:13:38 10° W 19:22:02 39° SSW 19:28:23 17° SSE visible
12 Dec 9.3 21:20:04 10° W 21:24:33 15° SW 21:26:28 14° SW visible
